[[{"header":{"parameterUnit":"m.s-1","parameterCategory":1,"la1":30.2991,"la2":30.254,"lo1":-89.0895,"lo2":-89.0444,"dy":0.0017,"dx":0.0017,"nx":28,"ny":28,"refTime":"2024-02-29T09:00:00:Z","depth":0,"parameterNumber":2,"parameterNumberName":"U-component_of_WINDS"},"data":[0,0,0,0,0,0,0,0,0,0,0,0,0,0,0,0,0,0,0,0,0,0,0,0,0,0,0,0,0,0,0,0,0,0,0,0,0,0,0,0,0,0,0,0,0,0,0,0,0,0,0,0,0,0,0,0,0,0,-4.5009,-4.501,0,-4.5096,-4.5097,-4.5098,-4.503,-4.5027,-4.5024,-4.5021,-4.5111,-4.5115,-4.5121,0,0,0,0,0,0,0,0,0,0,0,0,0,-4.4786,-4.479,-4.5009,-4.501,-4.5011,-4.5096,-4.5097,-4.5098,-4.503,-4.5026,-4.5023,-4.502,-4.5109,-4.5115,-4.5121,0,0,0,0,0,0,0,0,0,0,0,0,0,-4.4879,-4.4792,-4.5009,-4.4988,-4.4987,-4.5095,-4.5097,-4.5098,-4.5031,-4.5026,-4.5022,-4.5018,-4.5107,-4.5114,-4.5122,-4.5257,0,0,-4.5145,-4.5149,0,0,0,0,0,0,0,0,-4.4873,-4.4887,-4.499,-4.4989,-4.4988,-4.5047,-4.5051,-4.5151,-4.5032,-4.5014,-4.5021,-4.5016,-4.5093,-4.5102,-4.5127,-4.5261,-4.5265,-4.5146,-4.5151,-4.5154,-4.5156,0,0,0,0,0,0,0,-4.4867,-4.4883,-4.5043,-4.4991,-4.499,-4.4974,-4.4982,-4.507,-4.5077,-4.5015,-4.501,-4.5022,-4.5092,-4.512,-4.5129,-4.5266,-4.5146,-4.5153,-4.5157,-4.516,-4.5515,-4.552,0,0,0,0,0,0,-4.4863,-4.4878,-4.5041,-4.5046,-4.4919,-4.4981,-4.4991,-4.5033,-4.5076,-4.5078,-4.5025,-4.5018,-4.5109,-4.512,-4.5132,-4.5294,-4.5154,-4.5161,-4.5165,-4.5511,-4.5516,-4.5522,0,0,0,0,0,0,-4.4858,-4.4878,-4.5037,-4.4961,-4.498,-4.499,-4.5038,-4.5037,-4.5065,-4.5084,-4.5085,-4.5053,-4.5106,-4.5121,-4.5226,-4.5296,-4.5164,-4.5171,-4.5505,-4.5512,-4.5519,-4.5618,0,0,0,0,0,0,-4.4852,-4.4877,-4.4928,-4.4962,-4.4984,-4.513,-4.5042,-4.5042,-4.5078,-4.507,-4.511,-4.5112,-4.5104,-4.5215,-4.5234,-4.5304,-4.5177,-4.5499,-4.5508,-4.5517,-4.5608,-4.5627,-4.5644,0,0,0,0,0,-4.4844,-4.4952,-4.4931,-4.4951,-4.5048,-4.5134,-4.5147,-4.5135,-4.5084,-4.5136,-4.5148,-4.5111,-4.5285,-4.5227,-4.5247,-4.532,-4.5494,-4.5505,-4.5516,-4.56,-4.5624,-4.5643,0,0,0,0,0,0,-4.4926,-4.4956,-4.4933,-4.5055,-4.5093,-4.5123,-4.5188,-4.516,-4.5213,-4.5203,-4.5186,-4.5196,-4.5306,-4.5323,-4.5258,-4.5454,-4.5381,-4.5397,-4.5439,-4.5461,-4.5478,-4.5473,-4.5184,0,0,0,0,0,-4.4958,-4.5025,-4.5048,-4.5154,-4.5174,-4.5178,-4.5215,-4.5202,-4.5241,-4.5256,-4.5276,-4.5314,-4.5378,-4.542,-4.5479,-4.561,-4.5618,-4.567,-4.5688,-4.5703,-4.5717,-4.5788,-4.5812,-4.5557,-4.5557,-4.5557,0,0,-4.5025,-4.505,-4.5094,-4.5171,-4.5198,-4.5269,-4.5192,-4.5269,-4.5321,-4.5268,-4.5369,-4.5384,-4.5427,-4.5545,-4.5599,-4.5563,-4.5789,-4.5716,-4.5728,-4.5734,-4.5802,-4.5826,-4.5847,-4.5565,-4.5563,-4.5562,0,0,-4.5184,-4.5209,-4.5301,-4.533,-4.5372,-4.5374,-4.5396,-4.5431,-4.5439,-4.554,-4.5501,-4.5563,-4.5672,-4.5704,-4.5735,-4.5906,-4.5874,-4.5926,-4.6019,-4.6089,-4.6109,-4.6127,-4.6189,-4.6211,-4.5939,-4.594,-4.594,0,-4.5262,-4.5367,-4.5351,-4.5432,-4.5467,-4.5422,-4.5514,-4.5543,-4.5604,-4.5629,-4.5588,-4.5725,-4.575,-4.5876,-4.5918,-4.5944,-4.5969,-4.5922,-4.6107,-4.6125,-4.6141,-4.62,-4.6224,-4.5946,-4.5945,-4.5944,-4.5944,0,-4.5462,-4.5535,-4.5603,-4.5662,-4.5705,-4.5792,-4.5789,-4.5835,-4.5818,-4.5825,-4.5928,-4.5957,-4.6021,-4.605,-4.6035,-4.6175,-4.6151,-4.6109,-4.6037,-4.6172,-4.6227,-4.625,-4.5954,-4.5952,-4.595,-4.5949,0,0,-4.5675,-4.5725,-4.575,-4.5777,-4.582,-4.5877,-4.5961,-4.6024,-4.6064,-4.6106,-4.6177,-4.6271,-4.6232,-4.6267,-4.6255,-4.6316,-4.6451,-4.6266,-4.6267,-4.6301,-4.6609,-4.6641,-4.6668,-4.643,-4.6434,-4.6438,-4.6605,0,-4.5837,-4.5984,-4.5972,-4.6111,-4.6179,-4.6137,-4.621,-4.6245,-4.6253,-4.6312,-4.632,-4.6388,-4.6331,-4.6352,-4.641,-4.6423,-4.6513,-4.641,-4.6497,-4.65,-4.6489,-4.6696,-4.6731,-4.6888,-4.6627,-4.663,-4.6633,0,-4.6046,-4.6096,-4.6242,-4.6276,-4.6304,-4.637,-4.6427,-4.6484,-4.6523,-4.6524,-4.6563,-4.6541,-4.6627,-4.6551,-4.6669,-4.6599,-4.6634,-4.6646,-4.6651,-4.666,-4.6576,-4.6712,-4.6938,-4.6962,-4.6667,-4.6664,-4.6662,0,-4.6189,-4.6293,-4.6394,-4.6418,-4.6459,-4.6507,-4.6527,-4.6561,-4.66,-4.665,-4.6675,-4.6734,-4.6767,-4.6814,-4.6809,-4.6754,-4.6929,-4.6853,-4.6934,-4.6935,-4.6974,-4.6972,-4.721,-4.6994,-4.6994,-4.6994,-4.6993,0,-4.6372,-4.6463,-4.6459,-4.6521,-4.6622,-4.6608,-4.6708,-4.6722,-4.6753,-4.6818,-4.6784,-4.6846,-4.6834,-4.6896,-4.6892,-4.6991,-4.7006,-4.701,-4.7009,-4.7015,-4.7014,-4.7038,-4.7028,-4.7,-4.6998,-4.6997,-4.6996,0,-4.655,-4.655,-4.6658,-4.6688,-4.6698,-4.6771,-4.6798,-4.6857,-4.6861,-4.6944,-4.6962,-4.6971,-4.7041,-4.704,-4.7121,-4.7118,-4.724,-4.7225,-4.7228,-4.7225,-4.7307,-4.73,-4.757,-4.7605,-4.7365,-4.7367,-4.7369,0,-4.6667,-4.6737,-4.6775,-4.6815,-4.6838,-4.6904,-4.6944,-4.6932,-4.6974,-4.7024,-4.7077,-4.7145,-4.7198,-4.7314,-4.7327,-4.7389,-4.7376,-4.7466,-4.7385,-4.7389,-4.7379,-4.7376,-4.7383,-4.7483,-4.7485,-4.7487,-4.7489,0,-4.6877,-4.6873,-4.6931,-4.699,-4.7038,-4.7083,-4.7125,-4.7161,-4.7153,-4.7203,-4.7275,-4.7316,-4.7398,-4.7466,-4.7526,-4.7546,-4.7518,-4.7514,-4.7537,-4.7544,-4.7543,-4.7547,-4.7273,-4.7509,-4.7507,-4.7505,-4.7504,-4.7503,-4.7029,-4.7089,-4.7125,-4.7191,-4.7221,-4.7261,-4.7318,-4.733,-4.739,-4.7456,-4.7445,-4.7526,-4.7563,-4.764,-4.7666,-4.7729,-4.7697,-4.7729,-4.7738,-4.7746,-4.7756,-4.7532,-4.7739,-4.7739,-4.7738,-4.7738,-4.7737,0,-4.7237,-4.7259,-4.7319,-4.7379,-4.7431,-4.7398,-4.7443,-4.7489,-4.756,-4.7597,-4.7651,-4.7734,-4.7799,-4.7818,-4.7881,-4.7929,-4.7917,-4.7946,-4.7943,-4.7949,-4.778,-4.7755,-4.7954,-4.7954,-4.7954,-4.7954,-4.7954,-4.7954,-4.7352,-4.7452,-4.7453,-4.7568,-4.7588,-4.7667,-4.7696,-4.7733,-4.7762,-4.7856,-4.7911,-4.7922,-4.7952,-4.8018,-4.8077,-4.8081,-4.8106,-4.8141,-4.814,-4.7982,-4.796,-4.794,-4.7916,-4.8146,-4.8147,-4.8303,-4.8305,-4.8306]},{"header":{"parameterUnit":"m.s-1","parameterCategory":1,"la1":30.2991,"la2":30.254,"lo1":-89.0895,"lo2":-89.0444,"dy":0.0017,"dx":0.0017,"nx":28,"ny":28,"refTime":"2024-02-29T09:00:00:Z","depth":0,"parameterNumber":3,"parameterNumberName":"V-component_of_WINDS"},"data":[0,0,0,0,0,0,0,0,0,0,0,0,0,0,0,0,0,0,0,0,0,0,0,0,0,0,0,0,0,0,0,0,0,0,0,0,0,0,0,0,0,0,0,0,0,0,0,0,0,0,0,0,0,0,0,0,0,0,-2.4605,-2.4606,0,-2.4655,-2.4656,-2.4657,-2.4657,-2.4656,-2.4656,-2.4655,-2.4705,-2.4707,-2.4709,0,0,0,0,0,0,0,0,0,0,0,0,0,-2.4508,-2.451,-2.4605,-2.4606,-2.4607,-2.4655,-2.4656,-2.4657,-2.4657,-2.4656,-2.4656,-2.4655,-2.4705,-2.4707,-2.4709,0,0,0,0,0,0,0,0,0,0,0,0,0,-2.4554,-2.4511,-2.4605,-2.4613,-2.4614,-2.4655,-2.4656,-2.4657,-2.4657,-2.4656,-2.4655,-2.4654,-2.4704,-2.4707,-2.471,-2.4747,0,0,-2.4719,-2.472,0,0,0,0,0,0,0,0,-2.4551,-2.4557,-2.4611,-2.4612,-2.4614,-2.4649,-2.464,-2.4687,-2.4657,-2.4641,-2.4655,-2.4654,-2.4687,-2.4692,-2.4703,-2.4749,-2.4751,-2.4719,-2.4721,-2.4722,-2.4723,0,0,0,0,0,0,0,-2.4548,-2.4555,-2.4625,-2.4612,-2.4613,-2.4613,-2.4618,-2.4649,-2.4669,-2.4642,-2.4642,-2.4648,-2.4688,-2.47,-2.4704,-2.4752,-2.4719,-2.4721,-2.4723,-2.4724,-2.483,-2.4831,0,0,0,0,0,0,-2.4543,-2.4552,-2.4624,-2.4627,-2.4579,-2.4615,-2.4622,-2.4639,-2.4668,-2.4672,-2.4649,-2.4648,-2.4696,-2.4701,-2.4706,-2.4751,-2.4722,-2.4724,-2.4726,-2.4829,-2.483,-2.4831,0,0,0,0,0,0,-2.4541,-2.455,-2.4621,-2.459,-2.4599,-2.4618,-2.4637,-2.464,-2.4652,-2.4674,-2.4677,-2.4658,-2.4695,-2.4702,-2.4736,-2.4753,-2.4726,-2.4728,-2.4828,-2.4829,-2.4831,-2.4842,0,0,0,0,0,0,-2.4539,-2.4549,-2.4564,-2.459,-2.46,-2.4652,-2.4638,-2.4642,-2.4658,-2.4657,-2.4683,-2.4687,-2.4695,-2.4732,-2.4739,-2.4756,-2.4731,-2.4826,-2.4828,-2.483,-2.484,-2.4843,-2.4846,0,0,0,0,0,-2.4535,-2.4565,-2.4565,-2.4573,-2.4619,-2.4653,-2.4659,-2.4668,-2.4659,-2.4674,-2.4687,-2.4686,-2.475,-2.4736,-2.4744,-2.4762,-2.4825,-2.4828,-2.483,-2.4838,-2.4843,-2.4846,0,0,0,0,0,0,-2.454,-2.4568,-2.4568,-2.4607,-2.4628,-2.4653,-2.4672,-2.4672,-2.4695,-2.4694,-2.4704,-2.471,-2.4744,-2.4756,-2.474,-2.4799,-2.4786,-2.479,-2.479,-2.4794,-2.4797,-2.4794,-2.4733,0,0,0,0,0,-2.4545,-2.4571,-2.4594,-2.4626,-2.4636,-2.4652,-2.4667,-2.4672,-2.4694,-2.4702,-2.4718,-2.4738,-2.4763,-2.4779,-2.4803,-2.4841,-2.4847,-2.4858,-2.4861,-2.4863,-2.4867,-2.4888,-2.4893,-2.4839,-2.4839,-2.4839,0,0,-2.4557,-2.4576,-2.4591,-2.4627,-2.4644,-2.4669,-2.4659,-2.4687,-2.4705,-2.4706,-2.474,-2.4752,-2.4775,-2.4812,-2.4829,-2.4823,-2.4883,-2.4866,-2.4868,-2.4871,-2.4891,-2.4896,-2.49,-2.4841,-2.4841,-2.484,0,0,-2.4592,-2.4608,-2.4637,-2.4653,-2.4678,-2.4688,-2.4695,-2.472,-2.4728,-2.4762,-2.4763,-2.4785,-2.4828,-2.4844,-2.4858,-2.4898,-2.4897,-2.4905,-2.4922,-2.4942,-2.4947,-2.495,-2.4965,-2.497,-2.4908,-2.4909,-2.4909,0,-2.4603,-2.4642,-2.4651,-2.4679,-2.4695,-2.4696,-2.4725,-2.474,-2.4771,-2.4782,-2.4775,-2.4828,-2.4844,-2.4884,-2.4894,-2.4905,-2.4912,-2.4903,-2.4945,-2.4949,-2.4953,-2.4967,-2.4972,-2.4909,-2.4909,-2.4909,-2.4909,0,-2.4655,-2.4682,-2.4701,-2.4732,-2.475,-2.4777,-2.479,-2.4807,-2.4811,-2.4821,-2.4856,-2.4875,-2.4902,-2.4912,-2.4916,-2.4953,-2.4948,-2.4943,-2.4931,-2.4959,-2.4972,-2.4977,-2.4911,-2.491,-2.491,-2.491,0,0,-2.4695,-2.4729,-2.4736,-2.475,-2.4777,-2.4798,-2.4825,-2.4852,-2.4866,-2.4887,-2.4911,-2.4946,-2.4941,-2.4957,-2.4962,-2.498,-2.501,-2.4973,-2.4974,-2.4979,-2.5052,-2.5056,-2.5062,-2.501,-2.5011,-2.5012,-2.505,0,-2.4732,-2.4782,-2.4791,-2.4834,-2.4858,-2.486,-2.4884,-2.4902,-2.4913,-2.4935,-2.4946,-2.4971,-2.4963,-2.4973,-2.499,-2.5003,-2.5025,-2.5,-2.5031,-2.5032,-2.5026,-2.5069,-2.5073,-2.5108,-2.5055,-2.5056,-2.5057,0,-2.4783,-2.4806,-2.4851,-2.4875,-2.4885,-2.4907,-2.4932,-2.4953,-2.4974,-2.498,-2.4997,-2.5001,-2.5029,-2.5014,-2.5053,-2.5036,-2.5049,-2.5057,-2.5059,-2.5062,-2.5046,-2.5074,-2.512,-2.5125,-2.5065,-2.5064,-2.5063,0,-2.4808,-2.4849,-2.4882,-2.4893,-2.4921,-2.4936,-2.4949,-2.4969,-2.4984,-2.5006,-2.5016,-2.5041,-2.5054,-2.5073,-2.5082,-2.5071,-2.512,-2.5107,-2.5126,-2.5126,-2.5137,-2.5136,-2.5186,-2.5145,-2.5145,-2.5144,-2.5144,0,-2.4849,-2.4877,-2.4893,-2.4914,-2.4944,-2.4954,-2.4984,-2.4996,-2.5014,-2.5036,-2.5038,-2.5058,-2.5069,-2.5091,-2.5099,-2.513,-2.5136,-2.5141,-2.5143,-2.5141,-2.5141,-2.515,-2.5148,-2.5146,-2.5146,-2.5145,-2.5145,0,-2.4882,-2.4894,-2.493,-2.4953,-2.496,-2.4982,-2.5001,-2.5021,-2.503,-2.5058,-2.5065,-2.5081,-2.5107,-2.5118,-2.515,-2.5155,-2.519,-2.519,-2.5183,-2.5184,-2.5202,-2.5201,-2.5261,-2.5269,-2.5222,-2.5222,-2.5222,0,-2.4908,-2.4929,-2.4955,-2.497,-2.4983,-2.5007,-2.5023,-2.5032,-2.5049,-2.5074,-2.509,-2.5116,-2.5137,-2.5178,-2.5192,-2.5217,-2.5217,-2.5236,-2.5221,-2.5218,-2.5218,-2.5216,-2.5219,-2.524,-2.524,-2.524,-2.5241,0,-2.4952,-2.4957,-2.498,-2.5005,-2.5024,-2.5044,-2.5064,-2.5076,-2.5088,-2.5106,-2.5133,-2.5149,-2.5182,-2.5207,-2.5232,-2.5244,-2.5245,-2.5245,-2.5251,-2.525,-2.5245,-2.5248,-2.5191,-2.5244,-2.5244,-2.5244,-2.5243,-2.5243,-2.4983,-2.5002,-2.5023,-2.5048,-2.5064,-2.5082,-2.5101,-2.5113,-2.5136,-2.5163,-2.5167,-2.5196,-2.5215,-2.5249,-2.5262,-2.5284,-2.5279,-2.5287,-2.5289,-2.5291,-2.5293,-2.5241,-2.5288,-2.5288,-2.5288,-2.5288,-2.5288,0,-2.5028,-2.5041,-2.5064,-2.5092,-2.5111,-2.511,-2.5131,-2.5148,-2.5173,-2.5191,-2.5212,-2.5242,-2.5267,-2.5283,-2.5308,-2.5322,-2.5323,-2.5328,-2.5328,-2.533,-2.5295,-2.5288,-2.5327,-2.5327,-2.5327,-2.5327,-2.5327,-2.5327,-2.5053,-2.5086,-2.5093,-2.5132,-2.5145,-2.5173,-2.5186,-2.5202,-2.5217,-2.5251,-2.5271,-2.5281,-2.5299,-2.5325,-2.5347,-2.5351,-2.536,-2.5366,-2.537,-2.5337,-2.5333,-2.5329,-2.5322,-2.5368,-2.5368,-2.5403,-2.5403,-2.5403]}]]